Location: Unspecified
(0.0000°N, 0.0000°E)
Time: 17:56:56
(UTC+00:00)

deb Delta 126 - Pass Details

Date: 17 February 2026
Orbit: 1485 x 1545 km, 102.1° (Epoch: 6 March)

Event Time Altitude Azimuth Distance (km) Brightness Sun altitude
Rises 02:50:43 0° 25° (NNE) 4,664 ? -49.3°
Enters shadow 02:52:08 - 27° (NNE) 4,181 ? -49.0°
Exits shadow 03:08:04 21° 178° (S) 2,902 ? -45.2°
Drops below altitude 10° 03:10:21 10° 183° (S) 3,645 ? -44.6°
Sets 03:13:12 0° 187° (S) 4,621 ? -44.0°
